This is the latest recevied weather packets stored in our database for station/object JA6XZK-13. If no packets are shown the sender has not sent any weather packets the latest 10 day(s).
| Time | Temp. | Humidity | Pressure | Rain* | Wind** | Luminosity | Snow |
|---|---|---|---|---|---|---|---|
| 1777706459 | 19.44° C | 51% | 1010.3 hPa | - | - | - | - |
| 1777704660 | 19.44° C | 51% | 1010.3 hPa | - | - | - | - |
| 1777702860 | 19.44° C | 51% | 1010.3 hPa | - | - | - | - |
| 1777701061 | 19.44° C | 51% | 1010.3 hPa | - | - | - | - |
| 1777699262 | 19.44° C | 51% | 1010.3 hPa | - | - | - | - |
| 1777697463 | 19.44° C | 51% | 1010.3 hPa | - | - | - | - |
| 1777695664 | 19.44° C | 51% | 1010.3 hPa | - | - | - | - |
| 1777693865 | 19.44° C | 51% | 1010.3 hPa | - | - | - | - |
| 1777692066 | 19.44° C | 51% | 1010.3 hPa | - | - | - | - |
| 1777690266 | 19.44° C | 51% | 1010.3 hPa | - | - | - | - |
| 1777688437 | 19.44° C | 51% | 1010.3 hPa | - | - | - | - |
| 1777685907 | 18.33° C | 50% | 1010.5 hPa | - | - | - | - |
| 1777684108 | 17.78° C | 52% | 1010.2 hPa | - | - | - | - |
| 1777682309 | 17.78° C | 52% | 1010.1 hPa | - | - | - | - |
| 1777680509 | 17.22° C | 56% | 1009.8 hPa | - | - | - | - |
| 1777678710 | 16.67° C | 59% | 1009.7 hPa | - | - | - | - |
| 1777676911 | 16.11° C | 63% | 1009.4 hPa | - | - | - | - |
| 1777675112 | 15.56° C | 66% | 1009.1 hPa | - | - | - | - |
| 1777673312 | 15° C | 70% | 1008.9 hPa | - | - | - | - |
| 1777671513 | 14.44° C | 70% | 1008.7 hPa | - | - | - | - |
| 1777669713 | 14.44° C | 71% | 1008.3 hPa | - | - | - | - |
| 1777667914 | 14.44° C | 69% | 1007.7 hPa | - | - | - | - |
| 1777666114 | 14.44° C | 68% | 1007.5 hPa | - | - | - | - |
| 1777664315 | 14.44° C | 69% | 1007.6 hPa | - | - | - | - |
| 1777662516 | 14.44° C | 71% | 1007.5 hPa | - | - | - | - |
* Rain since midnight (hover to see other rain measurements)
** Current wind speed in m/s (hover to see current wind gust speed)